When you browse on this site, cookies collect data to enhance your experience and personalize the content and advertising you see.
Visit our Privacy Policy to learn more. By continuing to use the site, you agree to this use of cookies and data.
  • In Hungary
  • List of Countries
  • For 7 days
  • Water Temperature
  • Satellite Maps
  • Weather Map
  • News
  • Weather Widgets
  • user-avatar
    Login

    Hourly Weather Avezzano

    Today, 10 December, Monday

    Time Temperature Precipitation Wind Pressure Humidity
    00:00 +5°C° 0 mm 2 mps 693 mmHg 83%
    01:00 +5°C° 0 mm 2 mps 692 mmHg 84%
    02:00 +4°C° 0 mm 2 mps 692 mmHg 81%
    03:00 +4°C° 0 mm 2 mps 693 mmHg 79%
    04:00 +4°C° 0 mm 2 mps 693 mmHg 76%
    05:00 +4°C° 0 mm 2 mps 693 mmHg 73%
    06:00 +4°C° 0 mm 2 mps 693 mmHg 70%
    07:00 +4°C° 0 mm 2 mps 693 mmHg 65%
    08:00 +5°C° 0 mm 2 mps 694 mmHg 62%
    09:00 +7°C° 0 mm 2 mps 694 mmHg 58%
    10:00 +9°C° 0 mm 1 mps 695 mmHg 55%
    11:00 +9°C° 0 mm 2 mps 695 mmHg 53%
    12:00 +9°C° 0 mm 2 mps 695 mmHg 51%
    13:00 +10°C° 0 mm 3 mps 695 mmHg 49%
    14:00 +9°C° 0.1 mm 3 mps 695 mmHg 54%
    15:00 +8°C° 0.1 mm 3 mps 695 mmHg 60%
    16:00 +7°C° 0.1 mm 3 mps 695 mmHg 65%
    17:00 +6°C° 0.2 mm 2 mps 695 mmHg 69%
    18:00 +5°C° 0.2 mm 2 mps 695 mmHg 74%
    19:00 +4°C° 0.2 mm 2 mps 696 mmHg 78%
    20:00 +3°C° 0 mm 2 mps 696 mmHg 79%
    21:00 +3°C° 0 mm 2 mps 696 mmHg 80%
    22:00 +3°C° 0 mm 2 mps 696 mmHg 80%
    23:00 +3°C° 0 mm 1 mps 696 mmHg 80%

    Tomorrow, 11 December, Tuesday

    Time Temperature Precipitation Wind Pressure Humidity
    00:00 +3°C° 0 mm 1 mps 697 mmHg 80%
    01:00 +3°C° 0 mm 1 mps 697 mmHg 80%
    02:00 +3°C° 0 mm 1 mps 697 mmHg 79%
    03:00 +3°C° 0 mm 1 mps 696 mmHg 79%
    04:00 +2°C° 0 mm 1 mps 696 mmHg 79%
    05:00 +2°C° 0 mm 1 mps 696 mmHg 76%
    06:00 +2°C° 0 mm 1 mps 696 mmHg 73%
    07:00 +2°C° 0 mm 1 mps 696 mmHg 69%
    08:00 +4°C° 0 mm 1 mps 697 mmHg 61%
    09:00 +5°C° 0 mm 1 mps 698 mmHg 53%
    10:00 +7°C° 0 mm 1 mps 698 mmHg 45%
    11:00 +7°C° 0 mm 1 mps 698 mmHg 43%
    12:00 +7°C° 0 mm 2 mps 698 mmHg 41%
    13:00 +7°C° 0 mm 2 mps 698 mmHg 39%
    14:00 +6°C° 0 mm 2 mps 698 mmHg 44%
    15:00 +7°C° 0 mm 1 mps 698 mmHg 48%
    16:00 +6°C° 0 mm 1 mps 697 mmHg 53%
    17:00 +5°C° 0 mm 1 mps 697 mmHg 56%
    18:00 +4°C° 0 mm 1 mps 697 mmHg 59%
    19:00 +3°C° 0 mm 1 mps 697 mmHg 62%
    20:00 +3°C° 0 mm 1 mps 698 mmHg 62%
    21:00 +2°C° 0 mm 1 mps 698 mmHg 62%
    22:00 +2°C° 0 mm 1 mps 698 mmHg 62%
    23:00 +2°C° 0 mm 1 mps 698 mmHg 61%

    Day after tomorrow, 12 December, Wednesday

    Time Temperature Precipitation Wind Pressure Humidity
    00:00 +2°C° 0 mm 1 mps 698 mmHg 60%
    01:00 +2°C° 0 mm 1 mps 698 mmHg 59%
    02:00 +2°C° 0 mm 1 mps 698 mmHg 58%
    03:00 +2°C° 0 mm 1 mps 697 mmHg 58%
    04:00 +2°C° 0 mm 1 mps 697 mmHg 57%
    05:00 +2°C° 0 mm 1 mps 697 mmHg 57%
    06:00 +2°C° 0 mm 1 mps 697 mmHg 57%
    07:00 +2°C° 0 mm 1 mps 697 mmHg 57%
    08:00 +2°C° 0 mm 2 mps 697 mmHg 53%
    09:00 +4°C° 0 mm 2 mps 698 mmHg 50%
    10:00 +5°C° 0 mm 2 mps 698 mmHg 47%
    11:00 +5°C° 0.1 mm 2 mps 698 mmHg 48%
    12:00 +6°C° 0.1 mm 2 mps 697 mmHg 50%
    13:00 +6°C° 0.1 mm 2 mps 697 mmHg 51%
    14:00 +6°C° 0.3 mm 2 mps 696 mmHg 58%
    15:00 +5°C° 0.3 mm 2 mps 696 mmHg 64%
    16:00 +4°C° 0.3 mm 2 mps 695 mmHg 71%
    17:00 +4°C° 0.8 mm 2 mps 695 mmHg 75%
    18:00 +3°C° 0.8 mm 2 mps 695 mmHg 79%
    19:00 +3°C° 0.8 mm 2 mps 694 mmHg 82%
    20:00 +3°C° 1.1 mm 2 mps 694 mmHg 84%
    21:00 +3°C° 1.1 mm 2 mps 694 mmHg 86%
    22:00 +4°C° 1.1 mm 1 mps 694 mmHg 88%
    23:00 +4°C° 0.7 mm 1 mps 694 mmHg 89%

    13 December, Thursday

    Time Temperature Precipitation Wind Pressure Humidity
    00:00 +4°C° 0.7 mm 1 mps 693 mmHg 89%
    01:00 +4°C° 0.7 mm 1 mps 693 mmHg 90%
    02:00 +4°C° 0.1 mm 1 mps 693 mmHg 90%
    03:00 +3°C° 0.1 mm 1 mps 692 mmHg 90%
    04:00 +3°C° 0.1 mm 1 mps 692 mmHg 90%
    05:00 +3°C° 0 mm 1 mps 692 mmHg 89%
    06:00 +3°C° 0 mm 1 mps 692 mmHg 89%
    07:00 +3°C° 0 mm 1 mps 692 mmHg 88%
    08:00 +4°C° 0 mm 1 mps 692 mmHg 86%
    09:00 +5°C° 0 mm 1 mps 692 mmHg 84%
    10:00 +6°C° 0 mm 0 mps 692 mmHg 82%
    11:00 +7°C° 0 mm 1 mps 692 mmHg 80%
    12:00 +8°C° 0 mm 1 mps 692 mmHg 79%
    13:00 +8°C° 0 mm 1 mps 692 mmHg 78%
    14:00 +8°C° 0 mm 1 mps 692 mmHg 81%
    15:00 +7°C° 0 mm 1 mps 692 mmHg 83%
    16:00 +6°C° 0 mm 0 mps 692 mmHg 86%
    17:00 +6°C° 0 mm 1 mps 692 mmHg 87%
    18:00 +6°C° 0 mm 1 mps 692 mmHg 88%
    19:00 +5°C° 0 mm 1 mps 692 mmHg 89%
    20:00 +5°C° 0 mm 1 mps 693 mmHg 89%
    21:00 +5°C° 0 mm 1 mps 693 mmHg 90%
    22:00 +4°C° 0 mm 1 mps 693 mmHg 90%
    23:00 +4°C° 0 mm 1 mps 693 mmHg 89%

    14 December, Friday

    Time Temperature Precipitation Wind Pressure Humidity
    00:00 +4°C° 0 mm 1 mps 693 mmHg 89%
    01:00 +4°C° 0 mm 1 mps 693 mmHg 89%
    02:00 +4°C° 0 mm 1 mps 693 mmHg 88%
    03:00 +4°C° 0 mm 1 mps 693 mmHg 88%
    04:00 +4°C° 0 mm 1 mps 693 mmHg 87%
    05:00 +5°C° 0 mm 1 mps 693 mmHg 87%
    06:00 +5°C° 0 mm 1 mps 693 mmHg 88%
    07:00 +5°C° 0 mm 1 mps 694 mmHg 88%
    08:00 +6°C° 0 mm 1 mps 694 mmHg 86%
    09:00 +6°C° 0 mm 1 mps 695 mmHg 85%
    10:00 +7°C° 0 mm 1 mps 695 mmHg 83%
    11:00 +8°C° 0 mm 1 mps 696 mmHg 82%
    12:00 +9°C° 0 mm 1 mps 696 mmHg 80%
    13:00 +9°C° 0 mm 1 mps 696 mmHg 79%
    14:00 +9°C° 0 mm 1 mps 696 mmHg 81%
    15:00 +8°C° 0 mm 1 mps 696 mmHg 84%
    16:00 +8°C° 0 mm 1 mps 696 mmHg 86%
    17:00 +7°C° 0 mm 1 mps 697 mmHg 87%
    18:00 +7°C° 0 mm 1 mps 697 mmHg 87%
    19:00 +6°C° 0 mm 1 mps 697 mmHg 88%
    20:00 +6°C° 0 mm 1 mps 698 mmHg 88%
    21:00 +6°C° 0 mm 1 mps 698 mmHg 88%
    22:00 +6°C° 0 mm 1 mps 698 mmHg 88%
    23:00 +6°C° 0 mm 1 mps 699 mmHg 88%

    15 December, Saturday

    Time Temperature Precipitation Wind Pressure Humidity
    00:00 +6°C° 0 mm 1 mps 699 mmHg 88%
    01:00 +5°C° 0 mm 1 mps 699 mmHg 88%
    02:00 +5°C° 0 mm 1 mps 699 mmHg 88%
    03:00 +5°C° 0 mm 1 mps 699 mmHg 88%
    04:00 +5°C° 0 mm 1 mps 699 mmHg 88%
    05:00 +4°C° 0 mm 2 mps 699 mmHg 87%
    06:00 +4°C° 0 mm 2 mps 700 mmHg 87%
    07:00 +4°C° 0 mm 2 mps 700 mmHg 87%
    08:00 +5°C° 0 mm 2 mps 700 mmHg 85%
    09:00 +7°C° 0 mm 2 mps 701 mmHg 83%
    10:00 +8°C° 0 mm 2 mps 702 mmHg 82%
    11:00 +8°C° 0.1 mm 2 mps 702 mmHg 80%
    12:00 +9°C° 0.1 mm 2 mps 702 mmHg 79%
    13:00 +10°C° 0.1 mm 2 mps 702 mmHg 77%
    14:00 +9°C° 0.1 mm 2 mps 702 mmHg 80%
    15:00 +8°C° 0.1 mm 2 mps 702 mmHg 83%
    16:00 +8°C° 0.1 mm 2 mps 702 mmHg 85%
    17:00 +7°C° 0 mm 2 mps 702 mmHg 86%
    18:00 +6°C° 0 mm 2 mps 702 mmHg 88%
    19:00 +6°C° 0 mm 1 mps 702 mmHg 89%
    20:00 +6°C° 0 mm 1 mps 702 mmHg 89%
    21:00 +6°C° 0 mm 1 mps 703 mmHg 88%
    22:00 +5°C° 0 mm 1 mps 703 mmHg 87%
    23:00 +5°C° 0 mm 1 mps 703 mmHg 87%
    Show more